Regional Weather Roundup
Issued by NWS

Home | Current Version | Previous Version | Graphics & Text | Print | Product List | Glossary On
Versions: 1 2 3 4 5 6 7 8 9 10 11 12 13 14 15 16 17 18 19 20 21 22 23 24 25 26 27 28 29 30 31 32 33 34 35 36 37 38 39 40 41 42 43 44 45 46 47 48 49 50
000
ASUS43 KTOP 252008
RWRKS

WEATHER ROUNDUP FOR KANSAS
NATIONAL WEATHER SERVICE GOODLAND KS
200 PM CST TUE NOV 25 2014

NOTE:  "FAIR" INDICATES FEW OR NO CLOUDS BELOW 12,000 FEET WITH NO
SIGNIFICANT WEATHER AND/OR OBSTRUCTIONS TO VISIBILITY.

KSZ001>006-013>018-027>032-041>047-252100-
NORTHWEST KANSAS

CITY           SKY/WX    TMP DP  RH WIND       PRES   REMARKS
GOODLAND       CLOUDY    47   9  21 SW17G25   29.91F
HAYS           CLOUDY    48  19  32 SW18      30.01F
HILL CITY      CLOUDY    49  17  28 SW10      29.97F
RUSSELL        PTSUNNY   49  21  33 SW18      30.00F
$$

KSZ061>065-074>080-084>089-252100-
SOUTHWEST KANSAS

CITY           SKY/WX    TMP DP  RH WIND       PRES   REMARKS
DODGE CITY     PTSUNNY   50  13  22 SW17G26   30.03F
ELKHART          N/A     50  16  26 SW17        N/A
GARDEN CITY    MOSUNNY  N/A N/A N/A SW24      29.98F
GREAT BEND     MOSUNNY   48  18  29 SW15G25   30.04F
LIBERAL        PTSUNNY   52  18  25 SW20G30   30.04F
PRATT          SUNNY     48  19  32 SW13G23   30.07F
$$

KSZ066>073-081>083-090>101-252100-
SOUTHEAST KANSAS

CITY           SKY/WX    TMP DP  RH WIND       PRES   REMARKS
CHANUTE        SUNNY     45  18  34 W6        30.15F
COFFEYVILLE    SUNNY     47  19  33 SW9       30.17F
HUTCHINSON     SUNNY     51  23  33 SW14G21   30.07F
MEDICINE LODGE   N/A     50  24  36 SW9G22    30.08F
NEWTON         SUNNY     48  23  37 SW17      30.10F
PARSONS        SUNNY     46  18  32 SW9       30.18F
WICHITA INTL   MOSUNNY   50  21  32 SW13      30.10F
WICHITA JABRA  SUNNY     49  23  36 S12       30.10F
WICHITA MCCONL SUNNY     49  19  30 S14       30.11F
WINFIELD       SUNNY     49  23  36 SW12G21   30.15F
$$

KSZ007>012-019>026-033>040-048>060-102>105-252100-
NORTHEAST KANSAS

CITY           SKY/WX    TMP DP  RH WIND       PRES   REMARKS
CONCORDIA      SUNNY     49  23  36 SW18G24   30.01F
EMPORIA        SUNNY     46  21  37 SW13      30.10F
LAWRENCE       SUNNY     43  17  35 SW10      30.13F
MANHATTAN      SUNNY     49  25  39 SW13      30.07F
MARYSVILLE     SUNNY     46  28  49 SW15      30.04F
OLATHE IND     SUNNY     41  14  33 SW8       30.13F
OLATHE EXE     SUNNY     41  13  31 W8        30.12F
SALINA         SUNNY     53  23  31 SW16      30.05F
TOPEKA BILLARD SUNNY     46  20  35 S8        30.11F
TOPEKA FORBES  SUNNY     46  20  35 SW9       30.10F
$$


USA.gov is the U.S. government's official web portal to all federal, state and local government web resources and services.